[[{"header":{"parameterUnit":"m.s-1","parameterCategory":1,"la1":30.2991,"la2":30.254,"lo1":-89.0895,"lo2":-89.0444,"dy":0.0017,"dx":0.0017,"nx":28,"ny":28,"refTime":"2024-07-19T03:00:00:Z","depth":0,"parameterNumber":2,"parameterNumberName":"U-component_of_WINDS"},"data":[0,0,0,0,0,0,0,0,0,0,0,0,0,0,0,0,0,0,0,0,0,0,0,0,0,0,0,0,0,0,0,0,0,0,0,0,0,0,0,0,0,0,0,0,0,0,0,0,0,0,0,0,0,0,0,0,0,0,0.7025,0.7026,0,0.7052,0.7052,0.7052,0.707,0.7071,0.7071,0.7071,0.71,0.7101,0.7101,0,0,0,0,0,0,0,0,0,0,0,0,0,0.6992,0.6993,0.7025,0.7026,0.7026,0.7052,0.7052,0.7052,0.707,0.7071,0.7071,0.7071,0.71,0.7101,0.7101,0,0,0,0,0,0,0,0,0,0,0,0,0,0.7012,0.6993,0.7025,0.7038,0.7039,0.7052,0.7052,0.7052,0.707,0.7071,0.7071,0.7071,0.7099,0.71,0.7101,0.7104,0,0,0.7104,0.7105,0,0,0,0,0,0,0,0,0.701,0.7013,0.7036,0.7037,0.7039,0.7058,0.7051,0.707,0.707,0.7059,0.7071,0.7071,0.7086,0.7088,0.7093,0.7105,0.7106,0.7104,0.7105,0.7105,0.7106,0,0,0,0,0,0,0,0.7009,0.7012,0.7036,0.7036,0.7038,0.7043,0.7046,0.7055,0.7071,0.706,0.7061,0.7064,0.7087,0.7092,0.7093,0.7107,0.7104,0.7105,0.7106,0.7106,0.7121,0.7121,0,0,0,0,0,0,0.7005,0.701,0.7035,0.7037,0.7025,0.7043,0.7047,0.7052,0.7071,0.7074,0.7064,0.7065,0.709,0.7092,0.7095,0.7098,0.7105,0.7106,0.7107,0.7122,0.7121,0.7121,0,0,0,0,0,0,0.7005,0.7008,0.7034,0.7024,0.7028,0.7044,0.7049,0.7052,0.7057,0.7074,0.7077,0.7065,0.709,0.7093,0.7101,0.7099,0.7107,0.7108,0.7122,0.7121,0.7121,0.7104,0,0,0,0,0,0,0.7004,0.7007,0.7008,0.7024,0.7028,0.7039,0.7049,0.7052,0.7058,0.706,0.7076,0.7079,0.7091,0.7099,0.7102,0.71,0.7108,0.7122,0.7122,0.7121,0.7105,0.7103,0.7102,0,0,0,0,0,0.7002,0.7002,0.7008,0.701,0.7029,0.7039,0.7042,0.7054,0.7058,0.7059,0.707,0.7079,0.7099,0.71,0.7103,0.7102,0.7122,0.7122,0.7121,0.7106,0.7104,0.7102,0,0,0,0,0,0,0.6987,0.7005,0.7011,0.7016,0.7026,0.7042,0.7044,0.7051,0.7061,0.7062,0.7077,0.7081,0.7087,0.7095,0.7096,0.7105,0.7112,0.7112,0.7099,0.7097,0.7096,0.7093,0.7109,0,0,0,0,0,0.6983,0.6989,0.7005,0.7008,0.7013,0.7027,0.7032,0.7041,0.7052,0.7056,0.7068,0.7079,0.7087,0.7093,0.7102,0.7107,0.711,0.7107,0.7106,0.7105,0.7104,0.7107,0.7106,0.712,0.712,0.712,0,0,0.6978,0.6988,0.6991,0.7005,0.7014,0.702,0.7031,0.7037,0.7042,0.7057,0.7065,0.7074,0.7087,0.7093,0.7096,0.71,0.7101,0.7104,0.7103,0.7103,0.7106,0.7105,0.7104,0.7119,0.712,0.712,0,0,0.697,0.6978,0.6981,0.699,0.7002,0.7012,0.7012,0.7028,0.7034,0.7041,0.7053,0.7059,0.7074,0.7083,0.7089,0.7084,0.7093,0.7087,0.7079,0.7081,0.708,0.7079,0.7077,0.7076,0.7087,0.7087,0.7087,0,0.6961,0.697,0.6982,0.6987,0.6993,0.7007,0.701,0.7018,0.7033,0.7037,0.7041,0.7059,0.707,0.7077,0.7076,0.7081,0.7082,0.7085,0.7079,0.7078,0.7078,0.7075,0.7075,0.7086,0.7086,0.7086,0.7086,0,0.6958,0.6964,0.6965,0.6978,0.6985,0.6989,0.7002,0.7007,0.7015,0.7024,0.7032,0.7044,0.7056,0.7058,0.7067,0.7067,0.7069,0.7076,0.7083,0.7075,0.7073,0.7073,0.7085,0.7085,0.7085,0.7085,0,0,0.6941,0.696,0.696,0.6966,0.6981,0.6986,0.6991,0.7002,0.7005,0.7015,0.702,0.7032,0.7038,0.7045,0.7055,0.7057,0.7051,0.7063,0.7064,0.706,0.7052,0.7046,0.7045,0.7057,0.7057,0.7057,0.705,0,0.6934,0.6943,0.6954,0.6959,0.6965,0.6978,0.6982,0.6992,0.7001,0.7007,0.7018,0.7025,0.7033,0.7037,0.704,0.7051,0.7049,0.7052,0.7061,0.7061,0.7057,0.7044,0.7038,0.7031,0.705,0.705,0.705,0,0.6928,0.6936,0.6942,0.6955,0.6958,0.6962,0.6972,0.6978,0.6989,0.6995,0.7003,0.7013,0.7019,0.7026,0.7035,0.7036,0.7041,0.7047,0.7047,0.7048,0.7054,0.7044,0.703,0.7028,0.7049,0.7049,0.7049,0,0.6914,0.6927,0.6931,0.6936,0.6952,0.6954,0.6961,0.6973,0.6978,0.6987,0.6991,0.7001,0.7006,0.7014,0.7027,0.703,0.7034,0.7042,0.7039,0.7039,0.7039,0.7038,0.7024,0.7043,0.7043,0.7043,0.7043,0,0.6905,0.6908,0.6925,0.6928,0.6931,0.6944,0.6947,0.6956,0.6966,0.697,0.6983,0.6987,0.7004,0.701,0.702,0.7026,0.7028,0.7034,0.7036,0.7032,0.7031,0.7035,0.7035,0.7043,0.7043,0.7043,0.7043,0,0.689,0.6901,0.6907,0.6922,0.6925,0.6927,0.694,0.6943,0.6952,0.6958,0.6961,0.6976,0.6984,0.6997,0.701,0.7016,0.702,0.7024,0.7015,0.7017,0.7013,0.7013,0.7,0.6999,0.7019,0.7019,0.7018,0,0.6883,0.6885,0.69,0.6903,0.691,0.6916,0.6921,0.6934,0.6939,0.6952,0.6954,0.6963,0.697,0.6983,0.6995,0.7005,0.7009,0.7004,0.7011,0.7006,0.7008,0.7008,0.7008,0.7002,0.7002,0.7002,0.7002,0,0.687,0.6875,0.6882,0.689,0.6896,0.6903,0.6912,0.6914,0.6929,0.6934,0.6942,0.6948,0.696,0.6969,0.698,0.6988,0.6997,0.7,0.6999,0.6995,0.6989,0.6991,0.701,0.7,0.7,0.7,0.7,0.7,0.6858,0.6861,0.6871,0.6877,0.6885,0.6892,0.6895,0.6905,0.6911,0.6922,0.6929,0.6937,0.6948,0.6964,0.6971,0.6977,0.6981,0.6981,0.6981,0.698,0.6978,0.6989,0.6979,0.698,0.698,0.698,0.698,0,0.6845,0.6852,0.6858,0.6869,0.6874,0.6882,0.6891,0.6895,0.6901,0.691,0.6917,0.6926,0.6935,0.6947,0.6957,0.6959,0.6964,0.6961,0.6961,0.6962,0.6975,0.6974,0.6957,0.6957,0.6957,0.6957,0.6957,0.6957,0.6839,0.6842,0.6849,0.6856,0.6864,0.687,0.6875,0.6881,0.6889,0.6898,0.6904,0.6912,0.6923,0.6933,0.6941,0.6945,0.6948,0.6944,0.6948,0.696,0.6962,0.6964,0.6962,0.6944,0.6944,0.6935,0.6935,0.6935]},{"header":{"parameterUnit":"m.s-1","parameterCategory":1,"la1":30.2991,"la2":30.254,"lo1":-89.0895,"lo2":-89.0444,"dy":0.0017,"dx":0.0017,"nx":28,"ny":28,"refTime":"2024-07-19T03:00:00:Z","depth":0,"parameterNumber":3,"parameterNumberName":"V-component_of_WINDS"},"data":[0,0,0,0,0,0,0,0,0,0,0,0,0,0,0,0,0,0,0,0,0,0,0,0,0,0,0,0,0,0,0,0,0,0,0,0,0,0,0,0,0,0,0,0,0,0,0,0,0,0,0,0,0,0,0,0,0,0,3.9639,3.9639,0,3.9634,3.9634,3.9634,3.9646,3.9646,3.9647,3.9647,3.9636,3.9635,3.9634,0,0,0,0,0,0,0,0,0,0,0,0,0,3.9656,3.9656,3.9639,3.9639,3.9639,3.9634,3.9634,3.9634,3.9646,3.9646,3.9647,3.9647,3.9636,3.9635,3.9634,0,0,0,0,0,0,0,0,0,0,0,0,0,3.9649,3.9655,3.9639,3.9645,3.9645,3.9634,3.9634,3.9634,3.9646,3.9646,3.9647,3.9648,3.9636,3.9635,3.9634,3.9616,0,0,3.9631,3.9631,0,0,0,0,0,0,0,0,3.965,3.9649,3.9644,3.9644,3.9645,3.9641,3.9636,3.9627,3.9646,3.9645,3.9647,3.9648,3.9637,3.9636,3.9633,3.9615,3.9615,3.9631,3.963,3.963,3.963,0,0,0,0,0,0,0,3.965,3.9649,3.9637,3.9644,3.9644,3.9646,3.9646,3.9634,3.9637,3.9645,3.9646,3.9646,3.9637,3.9634,3.9633,3.9614,3.9631,3.963,3.963,3.9629,3.9582,3.9582,0,0,0,0,0,0,3.965,3.9649,3.9637,3.9637,3.9649,3.9645,3.9645,3.9642,3.9638,3.9638,3.9645,3.9646,3.9636,3.9634,3.9633,3.9611,3.963,3.9629,3.9628,3.9583,3.9582,3.9581,0,0,0,0,0,0,3.9651,3.9649,3.9637,3.9643,3.9642,3.9644,3.964,3.9641,3.9638,3.9638,3.9638,3.9642,3.9636,3.9634,3.9621,3.9611,3.9629,3.9628,3.9584,3.9583,3.9582,3.9568,0,0,0,0,0,0,3.9651,3.9649,3.9643,3.9643,3.9642,3.9626,3.964,3.9641,3.9637,3.9639,3.9635,3.9634,3.9636,3.9622,3.962,3.961,3.9627,3.9584,3.9583,3.9582,3.9569,3.9566,3.9564,0,0,0,0,0,3.9652,3.9638,3.9643,3.9641,3.9634,3.9626,3.9624,3.9629,3.9636,3.963,3.963,3.9634,3.9613,3.9621,3.9618,3.9608,3.9585,3.9583,3.9582,3.957,3.9567,3.9564,0,0,0,0,0,0,3.9633,3.9638,3.9643,3.9629,3.9627,3.9628,3.9619,3.9625,3.9619,3.9621,3.9625,3.9623,3.9609,3.9607,3.9616,3.959,3.96,3.9598,3.9592,3.9589,3.9586,3.9586,3.9626,0,0,0,0,0,3.9628,3.9623,3.9626,3.9613,3.9612,3.9616,3.9612,3.9616,3.9614,3.9612,3.9611,3.9607,3.96,3.9594,3.9587,3.9569,3.9569,3.9561,3.9559,3.9557,3.9554,3.9546,3.9542,3.9577,3.9577,3.9577,0,0,3.9616,3.9618,3.9614,3.961,3.9609,3.9602,3.9615,3.9607,3.9601,3.961,3.9598,3.9597,3.9593,3.9578,3.9571,3.9576,3.9545,3.9555,3.9553,3.9552,3.9544,3.9541,3.9538,3.9576,3.9576,3.9576,0,0,3.9591,3.9592,3.9582,3.9582,3.9581,3.9584,3.9582,3.9583,3.9583,3.9572,3.9579,3.9572,3.9559,3.9556,3.9552,3.953,3.9534,3.9527,3.9514,3.9505,3.9502,3.95,3.9492,3.9489,3.9525,3.9525,3.9525,0,3.9576,3.9567,3.9575,3.9568,3.9566,3.9577,3.9566,3.9565,3.9561,3.9559,3.9565,3.955,3.9548,3.9533,3.9527,3.9524,3.9521,3.9527,3.9503,3.95,3.9498,3.949,3.9487,3.9524,3.9524,3.9524,3.9524,0,3.9548,3.9543,3.9534,3.9533,3.9531,3.9521,3.9527,3.9523,3.9528,3.953,3.9518,3.9517,3.951,3.9507,3.9511,3.9493,3.9496,3.9502,3.9512,3.9494,3.9486,3.9483,3.9523,3.9523,3.9524,3.9524,0,0,3.9509,3.9515,3.9512,3.9512,3.9514,3.9509,3.95,3.9496,3.9493,3.9491,3.9483,3.9473,3.948,3.9476,3.948,3.9473,3.9455,3.948,3.948,3.9475,3.9435,3.9429,3.9426,3.9459,3.9458,3.9458,3.9435,0,3.9484,3.9471,3.948,3.9465,3.9459,3.9472,3.9464,3.9464,3.9466,3.9461,3.9463,3.9456,3.9466,3.9464,3.9458,3.9458,3.9447,3.946,3.945,3.945,3.945,3.9422,3.9415,3.9394,3.9432,3.9432,3.9432,0,3.9452,3.9452,3.9437,3.9442,3.944,3.9433,3.9431,3.9427,3.9427,3.9429,3.9427,3.9433,3.9424,3.9436,3.9423,3.9432,3.9429,3.9429,3.9428,3.9426,3.9438,3.9418,3.9387,3.9384,3.9427,3.9427,3.9428,0,3.9425,3.942,3.9411,3.9411,3.9416,3.9412,3.9413,3.9414,3.9412,3.941,3.9408,3.9404,3.9402,3.9398,3.9403,3.9411,3.939,3.9401,3.9391,3.939,3.9384,3.9384,3.9351,3.9384,3.9384,3.9384,3.9384,0,3.9395,3.9386,3.9399,3.9393,3.9383,3.9393,3.9383,3.9385,3.9387,3.9381,3.9391,3.9385,3.9392,3.9387,3.9391,3.938,3.9379,3.938,3.938,3.9378,3.9378,3.9375,3.9376,3.9383,3.9383,3.9383,3.9383,0,3.9361,3.937,3.9361,3.9368,3.937,3.9362,3.9367,3.9362,3.9367,3.936,3.9358,3.9365,3.9359,3.9365,3.9358,3.9361,3.9347,3.935,3.9347,3.9348,3.9336,3.9337,3.9299,3.9295,3.9331,3.9331,3.9331,0,3.9341,3.9335,3.9342,3.934,3.9342,3.9339,3.9337,3.9347,3.9345,3.9347,3.9341,3.9337,3.9334,3.9325,3.9328,3.9324,3.9327,3.9314,3.9326,3.9324,3.9326,3.9326,3.9325,3.9311,3.931,3.931,3.931,0,3.9305,3.931,3.9309,3.931,3.9308,3.9309,3.931,3.9307,3.9318,3.9315,3.9311,3.9309,3.9305,3.9301,3.9299,3.9299,3.9306,3.9307,3.9304,3.9301,3.9299,3.9299,3.934,3.9307,3.9307,3.9307,3.9308,3.9308,3.9276,3.9272,3.9277,3.9275,3.9278,3.928,3.9275,3.9281,3.9279,3.9277,3.9283,3.9278,3.928,3.9278,3.9278,3.9273,3.9278,3.9274,3.9273,3.9271,3.927,3.9301,3.9273,3.9273,3.9273,3.9273,3.9273,0,3.924,3.9245,3.9244,3.9246,3.9245,3.9255,3.9258,3.9255,3.9251,3.9254,3.9252,3.9248,3.9245,3.9249,3.9246,3.9242,3.9245,3.9241,3.924,3.924,3.9265,3.9268,3.9238,3.9238,3.9238,3.9238,3.9238,3.9238,3.9221,3.9213,3.922,3.9214,3.9219,3.9216,3.9216,3.9218,3.922,3.9215,3.9214,3.9218,3.9221,3.9219,3.9216,3.9218,3.9216,3.921,3.9212,3.9235,3.9238,3.9242,3.9244,3.921,3.921,3.9188,3.9187,3.9187]}]]